Location: Garshuizen
(53.3675°N, 6.7248°E)
Time: 13:15:58
(UTC+00:00)

Cosmos 2360 Rocket - Pass Details

Date: 15 May 2026
Orbit: 831 x 845 km, 71.0° (Epoch: 10 June)

Event Time Altitude Azimuth Distance (km) Brightness Sun altitude
Rises 19:59:54 0° 328° (NNW) 3,417 7.2 -4.7°
Reaches altitude 10° 20:02:26 10° 333° (NNW) 2,479 6.0 -5.0°
Maximum altitude 20:07:59 52° 50° (NE) 1,043 2.7 -5.6°
Drops below altitude 10° 20:13:31 10° 127° (SE) 2,464 4.0 -6.2°
Enters shadow 20:14:07 - 129° (SE) 2,682 4.1 -6.3°
